Terminal Aerodrome Forecast
Issued by NWS Mt. Holly, NJ

Home | Current Version | Previous Version | Text Only | Print | Product List | Glossary On
Versions: 1 2 3 4 5 6 7 8 9 10 11 12 13 14 15 16 17 18 19 20 21 22 23 24 25
000
FTUS41 KPHI 280521
TAFRDG
TAF
KRDG 280521Z 2806/2906 36010KT P6SM OVC050
     FM280900 35012KT P6SM OVC050
     FM281400 32015G25KT P6SM BKN050
     FM290200 33012G22KT P6SM SCT050=

USA.gov is the U.S. government's official web portal to all federal, state and local government web resources and services.